Погода в Калинине

Россия / Астраханская область     46°20′41″N   48°52′40″E
темп.,
°C
ветер,
м/с
пор.,
м/с
влажн.,
%
обл.,
%
осадки,
мм/ч
давл.,
гПа
погр.,
м
10 мая, пн
пн1001:00+18ю6969100 0.0 1009510
04:00+12з101382100 0.1 1010493
07:00+10зсз81483100 0.9 1012715
10:00+10з81379100 1.8 1014843
13:00+10зсз71176100 1.1 1015950
16:00+15з7843100 2.2 10161924
19:00+14з67442 0.0 10171281
22:00+10юз23552 0.0 101976
11 мая, вт
вт1101:00+8з22630 0.0 101933
04:00+7з22690 0.0 102130
07:00+11св11600 0.0 1022130
10:00+16в3344100 0.0 10221097
13:00+18вюв55395 0.0 10221476
16:00+18вюв67375 0.0 10211278
19:00+16в67466 0.0 10211085
22:00+15св47412 0.0 1019480
12 мая, ср
ср1201:00+15св4658100 0.0 1018348
04:00+14ссв3468100 0.0 1017187
07:00+16св35660 0.0 1017337
10:00+21в44510 0.0 1017847
13:00+22юв55563 0.0 10171024
16:00+21юв67535 0.0 1018868
19:00+19ююв56640 0.0 1018521
22:00+17юв23780 0.3 101866
13 мая, чт
чт1301:00+16юв238228 1.4 101864
04:00+15св128010 1.4 101725
07:00+18с236815 0.1 1017160
10:00+23в345293 0.6 1018570
13:00+25вюв674998 0.0 1018633
16:00+25вюв6842100 0.0 1017564
19:00+23в511482 0.0 1017318
22:00+22в513515 0.0 1017259
14 мая, пт
пт1401:00+21вюв6175872 2.0 1016362
04:00+21вюв715583 3.8 1017363
07:00+21вюв7145796 0.0 1019415
10:00+25вюв711396 0.0 1020502
13:00+25вюв79380 0.0 1021545
16:00+26в68310 0.0 1020496
19:00+23в49440 0.0 1019247
22:00+20в48560 0.0 1019121